TimeEST,TemperatureF,Dew PointF,Humidity,Sea Level PressureIn,VisibilityMPH,Wind Direction,Wind SpeedMPH,Gust SpeedMPH,PrecipitationIn,Events,Conditions,WindDirDegrees,DateUTC
12:15 AM,32.0,28.4,87,30.21,10.0,West,4.6,-,N/A,,Overcast,280,2013-03-07 05:15:00
12:34 AM,32.0,28.4,87,30.21,10.0,Calm,Calm,-,N/A,,Overcast,0,2013-03-07 05:34:00
12:55 AM,32.0,28.4,87,30.21,10.0,Calm,Calm,-,N/A,,Overcast,0,2013-03-07 05:55:00
1:15 AM,32.0,28.4,87,30.21,10.0,Calm,Calm,-,N/A,,Overcast,0,2013-03-07 06:15:00
1:34 AM,32.0,28.4,87,30.21,10.0,Calm,Calm,-,N/A,,Overcast,0,2013-03-07 06:34:00
1:55 AM,32.0,28.4,87,30.22,10.0,Calm,Calm,-,N/A,,Overcast,0,2013-03-07 06:55:00
2:15 AM,30.2,28.4,93,30.22,10.0,Calm,Calm,-,N/A,,Overcast,0,2013-03-07 07:15:00
2:35 AM,30.2,28.4,93,30.21,10.0,Calm,Calm,-,N/A,,Overcast,0,2013-03-07 07:35:00
2:54 AM,30.2,28.4,93,30.22,10.0,NW,3.5,-,N/A,,Overcast,310,2013-03-07 07:54:00
3:15 AM,30.2,28.4,93,30.22,10.0,NW,4.6,-,N/A,,Overcast,310,2013-03-07 08:15:00
3:35 AM,30.2,28.4,93,30.22,10.0,NW,3.5,-,N/A,,Overcast,310,2013-03-07 08:35:00
3:54 AM,30.2,28.4,93,30.23,10.0,NW,4.6,-,N/A,,Overcast,310,2013-03-07 08:54:00
4:15 AM,30.2,28.4,93,30.24,10.0,Calm,Calm,-,N/A,,Overcast,0,2013-03-07 09:15:00
4:35 AM,30.2,28.4,93,30.24,10.0,NW,3.5,-,N/A,,Overcast,310,2013-03-07 09:35:00
4:54 AM,30.2,28.4,93,30.25,10.0,Calm,Calm,-,N/A,,Overcast,0,2013-03-07 09:54:00
5:15 AM,30.2,28.4,93,30.25,10.0,Calm,Calm,-,N/A,,Overcast,0,2013-03-07 10:15:00
5:35 AM,30.2,28.4,93,30.26,10.0,NW,3.5,-,N/A,,Overcast,320,2013-03-07 10:35:00
5:54 AM,30.2,28.4,93,30.26,10.0,Calm,Calm,-,N/A,,Overcast,0,2013-03-07 10:54:00
6:15 AM,30.2,28.4,93,30.26,10.0,NNW,3.5,-,N/A,,Overcast,330,2013-03-07 11:15:00
6:34 AM,30.2,28.4,93,30.26,10.0,NNW,4.6,-,N/A,,Overcast,330,2013-03-07 11:34:00
6:55 AM,30.2,28.4,93,30.27,10.0,Calm,Calm,-,N/A,,Overcast,0,2013-03-07 11:55:00
7:14 AM,30.2,28.4,93,30.28,10.0,NW,4.6,-,N/A,,Overcast,320,2013-03-07 12:14:00
7:35 AM,30.2,28.4,93,30.29,10.0,NW,4.6,-,N/A,,Overcast,320,2013-03-07 12:35:00
7:55 AM,30.2,28.4,93,30.30,10.0,NW,5.8,-,N/A,,Overcast,310,2013-03-07 12:55:00
8:14 AM,30.2,28.4,93,30.31,10.0,NNW,5.8,-,N/A,,Overcast,330,2013-03-07 13:14:00
8:35 AM,30.2,28.4,93,30.32,10.0,NNW,6.9,-,N/A,,Overcast,330,2013-03-07 13:35:00
8:55 AM,32.0,28.4,87,30.32,10.0,NNW,9.2,-,N/A,,Overcast,340,2013-03-07 13:55:00
9:14 AM,32.0,28.4,87,30.32,10.0,NNW,9.2,-,N/A,,Overcast,340,2013-03-07 14:14:00
9:35 AM,32.0,28.4,87,30.32,10.0,North,8.1,-,N/A,,Overcast,360,2013-03-07 14:35:00
9:55 AM,33.8,28.4,81,30.32,10.0,North,5.8,-,N/A,,Overcast,350,2013-03-07 14:55:00
10:15 AM,33.8,26.6,75,30.33,10.0,North,11.5,-,N/A,,Overcast,10,2013-03-07 15:15:00
10:34 AM,33.8,26.6,75,30.33,10.0,NNW,11.5,-,N/A,,Overcast,330,2013-03-07 15:34:00
10:55 AM,33.8,26.6,75,30.33,10.0,North,8.1,-,N/A,,Overcast,350,2013-03-07 15:55:00
11:15 AM,33.8,24.8,70,30.33,10.0,North,9.2,-,N/A,,Overcast,350,2013-03-07 16:15:00
11:34 AM,33.8,21.2,60,30.33,10.0,NNW,9.2,-,N/A,,Overcast,330,2013-03-07 16:34:00
11:55 AM,33.8,21.2,60,30.33,10.0,North,8.1,-,N/A,,Overcast,350,2013-03-07 16:55:00
12:15 PM,33.8,19.4,56,30.34,10.0,North,9.2,-,N/A,,Overcast,10,2013-03-07 17:15:00
12:34 PM,33.8,19.4,56,30.33,10.0,NNW,3.5,-,N/A,,Overcast,340,2013-03-07 17:34:00
12:55 PM,33.8,19.4,56,30.33,10.0,NNE,5.8,-,N/A,,Overcast,20,2013-03-07 17:55:00
1:15 PM,35.6,19.4,52,30.32,10.0,NW,4.6,-,N/A,,Overcast,310,2013-03-07 18:15:00
1:34 PM,35.6,19.4,52,30.31,10.0,NNE,4.6,-,N/A,,Overcast,20,2013-03-07 18:34:00
1:55 PM,35.6,19.4,52,30.32,10.0,North,9.2,-,N/A,,Overcast,350,2013-03-07 18:55:00
2:15 PM,35.6,19.4,52,30.32,10.0,NNW,10.4,-,N/A,,Overcast,330,2013-03-07 19:15:00
2:34 PM,35.6,19.4,52,30.32,10.0,NW,4.6,-,N/A,,Overcast,310,2013-03-07 19:34:00
2:55 PM,35.6,19.4,52,30.32,10.0,NW,5.8,-,N/A,,Overcast,320,2013-03-07 19:55:00
3:15 PM,35.6,19.4,52,30.32,10.0,NNW,6.9,-,N/A,,Overcast,340,2013-03-07 20:15:00
3:34 PM,35.6,21.2,56,30.33,10.0,WNW,8.1,-,N/A,,Overcast,300,2013-03-07 20:34:00
3:55 PM,35.6,21.2,56,30.33,10.0,NNW,5.8,-,N/A,,Overcast,330,2013-03-07 20:55:00
4:15 PM,35.6,19.4,52,30.33,10.0,NNW,8.1,-,N/A,,Overcast,340,2013-03-07 21:15:00
4:35 PM,35.6,19.4,52,30.33,10.0,NW,6.9,-,N/A,,Overcast,320,2013-03-07 21:35:00
4:55 PM,35.6,19.4,52,30.33,10.0,NW,8.1,-,N/A,,Overcast,320,2013-03-07 21:55:00
5:15 PM,35.6,19.4,52,30.33,10.0,NNW,3.5,-,N/A,,Overcast,340,2013-03-07 22:15:00
5:35 PM,35.6,21.2,56,30.33,10.0,NNW,5.8,-,N/A,,Overcast,340,2013-03-07 22:35:00
5:55 PM,35.6,21.2,56,30.34,10.0,NW,10.4,-,N/A,,Overcast,320,2013-03-07 22:55:00
6:14 PM,33.8,24.8,70,30.34,10.0,NW,4.6,-,N/A,,Overcast,310,2013-03-07 23:14:00
6:35 PM,33.8,24.8,70,30.35,10.0,WNW,5.8,-,N/A,,Overcast,300,2013-03-07 23:35:00
6:55 PM,33.8,24.8,70,30.36,10.0,NW,4.6,-,N/A,,Overcast,310,2013-03-07 23:55:00
8:34 PM,33.8,24.8,70,30.37,10.0,Calm,Calm,-,N/A,,Overcast,0,2013-03-08 01:34:00
8:55 PM,32.0,24.8,75,30.37,10.0,NW,4.6,-,N/A,,Overcast,310,2013-03-08 01:55:00
9:15 PM,32.0,24.8,75,30.37,10.0,NNW,5.8,-,N/A,,Overcast,330,2013-03-08 02:15:00
9:34 PM,32.0,23.0,69,30.37,10.0,NNW,6.9,-,N/A,,Overcast,340,2013-03-08 02:34:00
9:55 PM,30.2,23.0,75,30.38,10.0,North,4.6,-,N/A,,Mostly Cloudy,350,2013-03-08 02:55:00
10:15 PM,28.4,21.2,74,30.37,10.0,Calm,Calm,-,N/A,,Scattered Clouds,0,2013-03-08 03:15:00
10:34 PM,28.4,21.2,74,30.37,10.0,Calm,Calm,-,N/A,,Clear,0,2013-03-08 03:34:00
10:55 PM,28.4,21.2,74,30.38,10.0,North,4.6,-,N/A,,Clear,10,2013-03-08 03:55:00
11:15 PM,28.4,19.4,69,30.39,10.0,NNE,5.8,-,N/A,,Clear,20,2013-03-08 04:15:00
11:34 PM,28.4,19.4,69,30.39,10.0,NNE,5.8,-,N/A,,Clear,20,2013-03-08 04:34:00
11:55 PM,26.6,19.4,74,30.39,10.0,North,5.8,-,N/A,,Clear,10,2013-03-08 04:55:00